Weather in Zarya

Russia / Vologda Oblast     59°17′51″N   39°29′34″E
temp.,
°C
wind,
m/s
gust,
m/s
humid.,
%
clouds,
%
prec.,
mm/h
press.,
hPa
HPBL,
m
18 april, sun
sun1800:00+4ne367915 0.0 1028114
03:00+3ne3582100 0.0 1029100
06:00+3ne3882100 0.0 1028199
09:00+7ene4866100 0.0 1029537
12:00+9ene6755100 0.0 10291190
15:00+10ene7754100 0.0 10291544
18:00+6ene4861100 0.0 10301250
21:00+3e257498 0.0 1031158
19 april, mon
mon1900:00+2ene4106963 0.0 1032373
03:000ene410795 0.0 1033321
06:00−1ene410785 0.0 1032408
09:00+4e58532 0.0 1033972
12:00+7e68405 0.0 10321516
15:00+8e57396 0.0 10311750
18:00+7e46475 0.0 10311331
21:00+3e3106519 0.0 1032252
20 april, tue
tue2000:00+1ese3107357 0.0 1032243
03:00−1e39805 0.0 1032214
06:00−1e410744 0.0 1032325
09:00+5ese69435 0.0 1030882
12:00+8ese6834100 0.0 10291413
15:00+9ese683893 0.0 10271743
18:00+8ese594792 0.0 10251041
21:00+5e41359100 0.0 1024430
21 april, wed
wed2100:00+3ese51366100 0.0 1022497
03:00+2e61365100 0.0 1019591
06:00+2e71560100 0.0 1015824
09:00+1ese71791100 0.3 1012892
12:00+1ese71592100 1.1 1010926
15:00+1ese71596100 1.4 1007804
18:00+1ese71697100 1.3 1006856
21:00+3se71597100 1.7 10041064
22 april, thu
thu2200:00+3sse71485100 0.5 10041317
03:00+1s81596100 1.6 10041067
06:00+1ssw71296100 0.8 1007947
09:00+2ssw61296100 0.9 1011750
12:00+3sw51194100 0.1 1013981
15:00+6sw5871100 0.3 10151233
18:00+6ssw2580100 0.1 1017353
21:00+3sse359180 0.1 101881